Tracking 29892 objects as of 21-Nov-2024
HD Live streaming from Space Station
objects crossing your sky now

DELTA 1 DEB

Track DELTA 1 DEB now!
10-day predictions


NORAD ID: 42090
Int'l Code: 1968-114S
Perigee: 1,414.7 km
Apogee: 1,600.0 km
Inclination: 101.4 °
Period: 116.0 minutes
Semi major axis: 7878 km
RCS: Unknown
Launch date: December 15, 1968
Source: United States (US)
Launch site: AIR FORCE WESTERN TEST RANGE (AFWTR)

Note: This is SATELLITE DEBRIS
Your satellite tracking list
Your tracking list is empty




NASA's NSSDC Master Catalog

Two Line Element Set (TLE):
1 42090U 68114S   24323.69109663  .00000398  00000-0  31550-2 0  9995
2 42090 101.3616 126.7448 0117657 234.3533 138.1796 12.41508465104261
Source of the keplerian elements: AFSPC